Other Surface Observations
Issued by NWS

Home | Current Version | Previous Version | Text Only | Print | Product List | Glossary On
Versions: 1 2 3 4 5 6 7 8 9 10 11 12 13 14 15 16 17 18 19 20 21 22 23 24 25 26 27 28 29 30 31 32 33 34 35 36 37 38 39 40 41 42 43 44 45 46 47 48 49 50
000
SXUS52 KTAE 272018
OSOTAE
OSOTAE
North Florida/South Alabama/Southwest Georgia Weather Roundup
National Weather Service Tallahassee Florida
400 PM EDT WED AUG 27 2014

Note: "fair" indicates few or no clouds below 12,000 feet with no
significant weather and/or obstructions to visibility.

!FLZ017-115-028-034-025-272100
...North Florida...

CITY           SKY/WX    TMP DP  RH WIND       PRES   REMARKS
TALLAHASSEE    PTSUNNY   95  61  32 NE12      29.98F HX  95
APALACHICOLA   SUNNY     87  69  54 SE12      29.98F HX  91
PERRY          MOSUNNY   88  59  37 CALM      29.98F
CROSS CITY       N/A     92  63  38 N10       29.97F HX  93
HOMERVILLE     FAIR      91  59  33 NW6       29.98F HX  90
JACKSONVILLE   MOSUNNY   86  65  49 E9        29.97F
$$

!FLZ112-006-005-002-011-272100
...Florida Panhandle...

CITY           SKY/WX    TMP DP  RH WIND       PRES   REMARKS
MARIANNA       MOSUNNY   93  64  38 NW10      29.98F HX  94
BONIFAY        FAIR      92  65  40 VRB3      30.00F HX  94
PANAMA CITY NW FAIR      94  63  35 N8        29.98F HX  95
TYNDALL AFB    MOSUNNY   93  66  41 VRB5      29.99F HX  95
TYND DRONE APT FAIR      92  66  43 N7G14     29.97F HX  94
DE FUNIAK SPR  FAIR      91  62  38 NE7       30.00F HX  91
EGLIN AFB      MOSUNNY   89  70  53 S8        29.99F HX  95
DESTIN         SUNNY     89  70  53 S8        29.99F HX  94
HURLBURT       SUNNY     89  64  43 S12       29.98F HX  90
CRESTVIEW      MOSUNNY   93  64  38 VRB6      30.00F HX  94
PENSACOLA      SUNNY     87  66  49 SE9       30.00F
$$

!ALZ063-066-272100
...South Alabama...

CITY           SKY/WX    TMP DP  RH WIND       PRES   REMARKS
DOTHAN         MOSUNNY   92  62  36 NE9       30.03F HX  92
OZARK CAIRNS   MOSUNNY   93  62  35 VRB6      30.00F HX  93
FT RUCKER HELI MOSUNNY   94  63  35 NE9G20    29.99F HX  95
RUCKER HELI 3  FAIR      91  59  34 E6G15     30.03F HX  90
RUCKER HELI 2  FAIR      92  62  36 NE10      30.00F HX  92
FLORALA APT    MOSUNNY   93  64  38 N3        30.02F HX  94
ANDALUSIA      PTSUNNY   97  61  30 E8        30.00F HX  97
TROY           MOSUNNY   93  62  35 N10       30.03F HX  93
EUFALA         FAIR      93  58  30 VRB3      30.00F HX  92
MOBILE         PTSUNNY   91  68  46 SE6       30.00F HX  95
$$

!GAZ120>161-272100
...Southwest and South Central Georgia...

CITY           SKY/WX    TMP DP  RH WIND       PRES   REMARKS
THOMASVILLE    FAIR      91  61  35 NE9       30.00F HX  91
BAINBRIDGE     SUNNY     97  64  34 N7        29.98F HX  99
MOODY AFB      SUNNY     89  60  37 VRB5      29.99F
VALDOSTA       MOSUNNY   90  59  35 N6        29.99F
MOULTRIE       MOSUNNY   90  61  37 N8        30.00F
BLAKELY        MOSUNNY   93  63  36 N5          N/A  HX  94
ALBANY         PTSUNNY   91  63  39 N9        30.01F HX  92
TIFTON         FAIR      89  54  30 W3        30.00F
FITZGERALD     FAIR      91  53  26 NE8       30.02F
CORDELE        FAIR      93  49  22 NE8       30.01F HX  90
AMERICUS       FAIR      90  54  29 NE8       30.03F
$$

!GMZ750-755-770-775-272100
...Coastal and Buoy Obs...

STATION/POSITION TIME  TEMP    WIND        PRES    VSBY  WAVE
                       AIR SEA DIR/SP/G                  HT/PER
                 (UTC) (F)     (DEG/KT/KT) (MB)    (MI)  (FT/S)
KEATON BEACH     2000   89      60/  6/ 10 1015.0F
CEDAR KEY        2000   86     200/  5/  6 1014.9F
C TOWER          2000   82     100/  9/ 10 1015.5F
APALACHICOLA BUO 2000   83 87   60/ 12/ 14 1015.1F         3/ 5
PANAMA CITY BUOY 1851   84 87   80/ 14/ 16 1015.3F         4/ 6
MOBILE BUOY      1949   81 86   80/ 21/ 27 1016.0F
ORANGE BCH AL BU 2000   84 86  110/ 10/ 14 1016.1F         4/ 6
$$



USA.gov is the U.S. government's official web portal to all federal, state and local government web resources and services.